Terminal Aerodrome Forecast
Issued by NWS

Home | Current Version | Previous Version | Graphics & Text | Print | Product List | Glossary On
Versions: 1 2 3 4 5 6 7 8 9 10 11 12 13 14 15 16 17 18 19 20 21 22
000
FTUS43 KIWX 162300
TAFSBN
TAF
KSBN 162336Z 1700/1724 27013G22KT 2SM -RA BR OVC005
     FM170200 29014G22KT 3SM -DZ BR OVC012
     FM170800 29012G18KT P6SM OVC015
     FM171200 28012G18KT P6SM BKN020=

USA.gov is the U.S. government's official web portal to all federal, state and local government web resources and services.